Location: Capelle
(50.3413°N, 1.9974°E)
Time: 23:39:31
(UTC+00:00)

Cosmos 1741 Rocket - Pass Details

Date: 12 January 2026
Orbit: 758 x 777 km, 74.0° (Epoch: 9 February)

Event Time Altitude Azimuth Distance (km) Brightness Sun altitude
Rises 18:40:48 0° 334° (NNW) 3,243 7.5 -22.8°
Reaches altitude 10° 18:43:12 10° 331° (NNW) 2,310 6.7 -23.1°
Maximum altitude 18:48:23 66° 251° (WSW) 830 4.3 -24.0°
Drops below altitude 10° 18:53:31 10° 169° (S) 2,284 6.4 -24.8°
Sets 18:55:53 0° 167° (SSE) 3,204 7.1 -25.1°
